Weather History for Southend-On-Sea, United Kingdom

Change the Weather History Date:

Wednesday, July 31, 2013

  Actual Average Record
Temperature  
Mean Temperature 68 °F -  
Max Temperature 77 °F 71 °F 82 °F (1999)
Min Temperature 60 °F 55 °F 51 °F (2007)
Cooling Degree Days 4    
Growing Degree Days 18 (Base 50)    
Moisture  
Dew Point 60 °F    
Average Humidity 76    
Maximum Humidity 88    
Minimum Humidity 57    
Precipitation  
Precipitation 0.00 in - - ()
Sea Level Pressure  
Sea Level Pressure 29.98 in    
Wind  
Wind Speed 12 mph ()    
Max Wind Speed 20 mph    
Max Gust Speed -    
Visibility 6.2 miles    
Events      
Averages and records for this station are not official NWS values.
T = Trace of Precipitation, MM = Missing Value Source: Averaged Metar Reports

Daily Weather History Graph

Daily Weather History Graph

Search for Another Location

Airport:

Trip Planner

Search our weather history database for the weather conditions in past years. The results will help you decide how hot, cold, wet, or windy it might be!

Date:

Astronomy

Jul. 31, 2013 Rise Set
Actual Time 5:19 AM BST 8:46 PM BST
Civil Twilight 4:38 AM BST 9:27 PM BST
Nautical Twilight 3:43 AM BST 10:22 PM BST
Astronomical Twilight 2:23 AM BST 11:39 PM BST
Moon 12:07 AM BST (7/31) 3:50 PM BST (7/31)
Length of Visible Light 16h 49m
Length of Day
15h 27m
Waning Crescent, 34% of the Moon is Illuminated
Jul 31
Waning Crescent
Aug 6
New
Aug 14
First Quarter
Aug 21
Full
Aug 28
Last Quarter

Hourly Weather History & Observations

Time (BST) Temp. Dew Point Humidity Pressure Visibility Wind Dir Wind Speed Gust Speed Precip Events Conditions
12:20 AM 64.4 °F 59.0 °F 83% 29.95 in - WSW 11.5 mph - N/A   Clear
12:50 AM 64.4 °F 59.0 °F 83% 29.95 in - WSW 12.7 mph - N/A   Clear
1:50 AM 64.4 °F 57.2 °F 77% 29.95 in - WSW 11.5 mph - N/A   Clear
2:50 AM 64.4 °F 57.2 °F 77% 29.95 in - WSW 11.5 mph - N/A   Clear
3:50 AM 62.6 °F 57.2 °F 82% 29.98 in - WSW 10.4 mph - N/A   Clear
5:20 AM 62.6 °F 57.2 °F 82% 29.98 in - SW 12.7 mph - N/A   Clear
5:50 AM 60.8 °F 57.2 °F 88% 29.98 in 6.2 mi SW 9.2 mph - N/A   Partly Cloudy
6:20 AM 62.6 °F 59.0 °F 88% 29.98 in 6.2 mi SW 11.5 mph - N/A   Partly Cloudy
6:50 AM 62.6 °F 57.2 °F 82% 29.98 in 6.2 mi SW 12.7 mph - N/A   Partly Cloudy
7:20 AM 64.4 °F 57.2 °F 77% 29.98 in - SW 11.5 mph - N/A   Clear
7:50 AM 66.2 °F 59.0 °F 78% 29.98 in 6.2 mi SW 11.5 mph - N/A   Partly Cloudy
8:20 AM 66.2 °F 59.0 °F 78% 30.01 in 6.2 mi SW 13.8 mph - N/A   Scattered Clouds
8:50 AM 66.2 °F 57.2 °F 73% 30.01 in 6.2 mi SW 13.8 mph - N/A   Scattered Clouds
9:20 AM 66.2 °F 59.0 °F 78% 30.01 in 6.2 mi SW 15.0 mph - N/A   Scattered Clouds
9:50 AM 66.2 °F 60.8 °F 83% 30.01 in 6.2 mi SW 12.7 mph - N/A   Light Drizzle
10:20 AM 66.2 °F 60.8 °F 83% 30.01 in 6.2 mi SW 10.4 mph - N/A   Mostly Cloudy
10:50 AM 66.2 °F 59.0 °F 78% 30.01 in 6.2 mi SSW 15.0 mph - N/A   Mostly Cloudy
11:20 AM 68.0 °F 60.8 °F 78% 29.98 in 6.2 mi SSW 15.0 mph - N/A   Mostly Cloudy
11:50 AM 68.0 °F 62.6 °F 83% 30.01 in 6.2 mi SW 16.1 mph - N/A   Mostly Cloudy
12:20 PM 69.8 °F 62.6 °F 78% 30.01 in 6.2 mi SSW 17.3 mph - N/A   Mostly Cloudy
12:50 PM 71.6 °F 62.6 °F 73% 30.01 in 6.2 mi SSW 17.3 mph - N/A   Mostly Cloudy
1:20 PM 71.6 °F 62.6 °F 73% 30.01 in 6.2 mi SW 18.4 mph - N/A   Mostly Cloudy
1:50 PM 71.6 °F 62.6 °F 73% 29.98 in 6.2 mi SW 18.4 mph - N/A   Mostly Cloudy
2:20 PM 73.4 °F 62.6 °F 69% 29.98 in 6.2 mi SW 18.4 mph - N/A   Mostly Cloudy
2:50 PM 75.2 °F 60.8 °F 61% 29.98 in 6.2 mi WSW 17.3 mph - N/A   Scattered Clouds
3:20 PM 75.2 °F 62.6 °F 65% 29.98 in 6.2 mi SW 16.1 mph - N/A   Scattered Clouds
3:50 PM 77.0 °F 60.8 °F 57% 29.98 in 6.2 mi SW 18.4 mph - N/A   Scattered Clouds
4:20 PM 77.0 °F 60.8 °F 57% 29.98 in 6.2 mi SW 19.6 mph - N/A   Scattered Clouds
4:50 PM 75.2 °F 62.6 °F 65% 29.98 in 6.2 mi SSW 17.3 mph - N/A   Scattered Clouds
5:20 PM 73.4 °F 62.6 °F 69% 29.98 in 6.2 mi SSW 17.3 mph - N/A   Scattered Clouds
5:50 PM 73.4 °F 62.6 °F 69% 29.98 in 6.2 mi SSW 15.0 mph - N/A   Scattered Clouds
6:20 PM 71.6 °F 60.8 °F 69% 29.98 in 6.2 mi SSW 16.1 mph - N/A   Scattered Clouds
6:50 PM 71.6 °F 60.8 °F 69% 29.95 in 6.2 mi SSW 17.3 mph - N/A   Mostly Cloudy
7:20 PM 69.8 °F 60.8 °F 73% 29.98 in 6.2 mi SSW 15.0 mph - N/A   Mostly Cloudy
7:50 PM 69.8 °F 60.8 °F 73% 29.98 in 6.2 mi SSW 11.5 mph - N/A   Mostly Cloudy
8:20 PM 69.8 °F 62.6 °F 78% 29.98 in 6.2 mi SSW 11.5 mph - N/A   Mostly Cloudy
8:50 PM 69.8 °F 60.8 °F 73% 29.98 in 6.2 mi SW 11.5 mph - N/A   Mostly Cloudy
9:20 PM 68.0 °F 60.8 °F 78% 29.98 in 6.2 mi SW 10.4 mph - N/A   Scattered Clouds
9:50 PM 68.0 °F 60.8 °F 78% 29.98 in 6.2 mi SSW 9.2 mph - N/A   Scattered Clouds
10:20 PM 68.0 °F 60.8 °F 78% 29.98 in 6.2 mi SSW 11.5 mph - N/A   Scattered Clouds
10:50 PM 66.2 °F 60.8 °F 83% 29.98 in 6.2 mi SSW 8.1 mph - N/A   Partly Cloudy
11:20 PM 66.2 °F 60.8 °F 83% 29.98 in 6.2 mi SSW 6.9 mph - N/A   Partly Cloudy
11:50 PM 66.2 °F 60.8 °F 83% 29.95 in 6.2 mi South 6.9 mph - N/A   Partly Cloudy